Language: 


Des rapports , des résumés tant et plus, au choix de chacun....


Données statistiques de la station
Quotidien Rapport Février 11, 2017 Unités:  Métrique    Anglais   les deux
« Précédent Jour
Suivant Jour »
Quotidien Hebdomadaire Mensuel Annuel Actuel
  Haut: Bas: Moyen:
Température: 1.9 °C 0.0 °C 0.9 °C
Pt de rosée: 1.3 °C -0.3 °C 0.5 °C
Humidité: 98 % 0 % 97 %
Vitesse du vent: 15.8 km/h 0.0 km/h 8.1 km/h
Rafales: 19.8 km/h - -
Vent:- - East
Pression: 1019.9 hPa 0.0 hPa -
Précipitation: 0.0 mm    
Historical Graphs
 
 
Données statistiques pour Février 11, 2017
Heure Température Point de rosée Pression Vent Vitesse du vent Refales Humidité Pluie (taux horaire)
00:04 0.1 °C -0.3 °C 1019.9 hPa NNW 7.9 km/h 10.5 km/h 97 % 0.0 mm
00:09 0.1 °C -0.3 °C 1019.9 hPa North 1.8 km/h 10.5 km/h 97 % 0.0 mm
00:15 0.1 °C -0.2 °C 1019.9 hPa NNE 6.4 km/h 10.1 km/h 98 % 0.0 mm
00:20 0.1 °C -0.3 °C 1019.9 hPa NNE 4.3 km/h 10.5 km/h 97 % 0.0 mm
00:25 0.1 °C -0.3 °C 1018.8 hPa North 7.9 km/h 11.6 km/h 97 % 0.0 mm
00:30 0.1 °C -0.3 °C 1018.8 hPa NE 9.3 km/h 11.6 km/h 97 % 0.0 mm
00:35 0.1 °C -0.3 °C 1018.8 hPa NNE 6.9 km/h 10.5 km/h 97 % 0.0 mm
00:40 0.1 °C -0.3 °C 1018.8 hPa North 5.8 km/h 11.6 km/h 97 % 0.0 mm
00:45 0.1 °C -0.3 °C 1018.8 hPa ENE 8.7 km/h 11.6 km/h 97 % 0.0 mm
00:50 0.1 °C -0.3 °C 1018.8 hPa North 6.1 km/h 10.5 km/h 97 % 0.0 mm
00:55 0.1 °C -0.3 °C 1019.9 hPa NE 8.7 km/h 10.5 km/h 97 % 0.0 mm
01:00 0.1 °C -0.3 °C 1019.9 hPa NE 9.3 km/h 10.5 km/h 97 % 0.0 mm
01:05 0.1 °C -0.3 °C 1019.9 hPa NE 7.9 km/h 10.5 km/h 97 % 0.0 mm
01:10 0.1 °C -0.3 °C 1018.8 hPa NE 9.0 km/h 10.1 km/h 97 % 0.0 mm
01:15 0.1 °C -0.3 °C 1018.8 hPa NE 6.9 km/h 9.7 km/h 97 % 0.0 mm
01:20 0.1 °C -0.3 °C 1018.8 hPa NE 6.4 km/h 10.1 km/h 97 % 0.0 mm
01:25 0.1 °C -0.3 °C 1019.9 hPa North 9.0 km/h 10.1 km/h 97 % 0.0 mm
01:30 0.1 °C -0.3 °C 1019.9 hPa North 9.0 km/h 10.1 km/h 97 % 0.0 mm
01:35 0.1 °C -0.3 °C 1019.9 hPa NNE 6.1 km/h 10.1 km/h 97 % 0.0 mm
01:40 0.1 °C -0.3 °C 1018.8 hPa NNE 7.6 km/h 9.7 km/h 97 % 0.0 mm
01:45 0.1 °C -0.3 °C 1018.8 hPa NNE 6.4 km/h 10.5 km/h 97 % 0.0 mm
01:50 0.1 °C -0.3 °C 1018.8 hPa NNE 7.9 km/h 10.5 km/h 97 % 0.0 mm
01:55 0.1 °C -0.2 °C 1018.8 hPa NNE 6.1 km/h 10.5 km/h 98 % 0.0 mm
02:02 0.0 °C -0.2 °C 0.0 hPa Calm     0 % 0.0 mm
02:07 0.1 °C -0.2 °C 1018.8 hPa North 4.7 km/h 8.7 km/h 98 % 0.0 mm
02:12 0.1 °C -0.2 °C 1018.8 hPa NNE 6.4 km/h 10.5 km/h 98 % 0.0 mm
02:17 0.1 °C -0.2 °C 1018.8 hPa NNE 6.1 km/h 10.5 km/h 98 % 0.0 mm
02:22 0.1 °C -0.2 °C 1018.2 hPa NE 6.9 km/h 9.3 km/h 98 % 0.0 mm
02:27 0.1 °C -0.2 °C 1018.2 hPa NNE 6.9 km/h 9.7 km/h 98 % 0.0 mm
02:32 0.1 °C -0.2 °C 1018.2 hPa NE 5.8 km/h 9.7 km/h 98 % 0.0 mm
02:37 0.1 °C -0.2 °C 1018.2 hPa NNE 6.1 km/h 9.0 km/h 98 % 0.0 mm
02:42 0.1 °C -0.2 °C 1018.2 hPa NNE 6.4 km/h 10.1 km/h 98 % 0.0 mm
02:47 0.1 °C -0.2 °C 1018.2 hPa NNE 7.6 km/h 10.1 km/h 98 % 0.0 mm
02:52 0.1 °C -0.2 °C 1018.8 hPa NNE 7.6 km/h 9.0 km/h 98 % 0.0 mm
02:57 0.1 °C -0.2 °C 1018.8 hPa NNE 6.9 km/h 9.0 km/h 98 % 0.0 mm
03:02 0.2 °C -0.1 °C 1018.8 hPa North 2.1 km/h 8.7 km/h 98 % 0.0 mm
03:07 0.2 °C -0.1 °C 1018.8 hPa NNE 5.5 km/h 6.8 km/h 98 % 0.0 mm
03:12 0.2 °C -0.1 °C 1018.8 hPa NNE 7.6 km/h 8.7 km/h 98 % 0.0 mm
03:17 0.2 °C -0.1 °C 1018.8 hPa NNE 7.9 km/h 8.7 km/h 98 % 0.0 mm
03:22 0.2 °C -0.1 °C 1018.8 hPa NNE 5.8 km/h 9.0 km/h 98 % 0.0 mm
03:27 0.2 °C -0.1 °C 1018.8 hPa North 5.0 km/h 9.7 km/h 98 % 0.0 mm
03:32 0.2 °C -0.1 °C 1018.8 hPa NE 4.7 km/h 9.7 km/h 98 % 0.0 mm
03:37 0.2 °C -0.1 °C 1018.8 hPa North 4.3 km/h 9.3 km/h 98 % 0.0 mm
03:42 0.2 °C -0.1 °C 1018.8 hPa Calm   8.7 km/h 98 % 0.0 mm
03:47 0.2 °C -0.1 °C 1018.8 hPa North 7.9 km/h 9.7 km/h 98 % 0.0 mm
03:52 0.2 °C -0.1 °C 1018.8 hPa NNE 1.8 km/h 9.7 km/h 98 % 0.0 mm
03:57 0.2 °C -0.1 °C 1018.8 hPa North 6.9 km/h 8.7 km/h 98 % 0.0 mm
04:02 0.3 °C 0.0 °C 1018.8 hPa NE 5.5 km/h 7.9 km/h 98 % 0.0 mm
04:07 0.3 °C 0.0 °C 1018.8 hPa North 5.8 km/h 9.0 km/h 98 % 0.0 mm
04:12 0.3 °C 0.0 °C 1018.8 hPa NE 6.9 km/h 9.3 km/h 98 % 0.0 mm
04:17 0.3 °C 0.0 °C 1018.8 hPa NE 1.4 km/h 9.3 km/h 98 % 0.0 mm
04:22 0.3 °C 0.0 °C 1018.8 hPa ENE 8.7 km/h 9.3 km/h 98 % 0.0 mm
04:27 0.3 °C 0.0 °C 1018.8 hPa NE 6.4 km/h 10.1 km/h 98 % 0.0 mm
04:32 0.3 °C 0.0 °C 1018.8 hPa NNE 10.5 km/h 10.5 km/h 98 % 0.0 mm
04:37 0.3 °C 0.0 °C 1018.8 hPa NE 7.9 km/h 10.5 km/h 98 % 0.0 mm
04:42 0.3 °C 0.0 °C 1018.8 hPa NNE 8.7 km/h 10.8 km/h 98 % 0.0 mm
04:47 0.3 °C 0.0 °C 1018.8 hPa NE 9.7 km/h 11.1 km/h 98 % 0.0 mm
04:52 0.3 °C 0.0 °C 1018.8 hPa NNE 9.0 km/h 11.1 km/h 98 % 0.0 mm
04:57 0.3 °C 0.0 °C 1018.8 hPa NNE 6.4 km/h 10.5 km/h 98 % 0.0 mm
05:02 0.3 °C 0.0 °C 1018.8 hPa NNE 7.9 km/h 13.0 km/h 98 % 0.0 mm
05:07 0.3 °C 0.0 °C 1018.8 hPa NNE 4.7 km/h 14.0 km/h 98 % 0.0 mm
05:13 0.3 °C 0.0 °C 1018.8 hPa ENE 6.4 km/h 14.0 km/h 98 % 0.0 mm
05:18 0.3 °C 0.0 °C 1018.8 hPa NE 6.9 km/h 11.9 km/h 98 % 0.0 mm
05:23 0.3 °C 0.0 °C 1018.8 hPa NE 7.9 km/h 10.1 km/h 98 % 0.0 mm
05:28 0.3 °C 0.0 °C 1018.8 hPa North 6.4 km/h 10.1 km/h 98 % 0.0 mm
05:33 0.3 °C 0.0 °C 1018.8 hPa NE 6.9 km/h 10.1 km/h 98 % 0.0 mm
05:38 0.3 °C 0.0 °C 1018.8 hPa NNE 6.4 km/h 10.5 km/h 98 % 0.0 mm
05:43 0.3 °C 0.0 °C 1018.8 hPa NE 6.4 km/h 10.5 km/h 98 % 0.0 mm
05:48 0.3 °C 0.0 °C 1018.8 hPa NNE 6.9 km/h 10.1 km/h 98 % 0.0 mm
05:53 0.4 °C 0.1 °C 1018.8 hPa NE 8.7 km/h 10.1 km/h 98 % 0.0 mm
05:58 0.4 °C 0.1 °C 1018.8 hPa NNE 6.1 km/h 10.1 km/h 98 % 0.0 mm
06:03 0.4 °C 0.1 °C 1018.8 hPa NNE 7.9 km/h 9.7 km/h 98 % 0.0 mm
06:08 0.4 °C 0.1 °C 1018.2 hPa NNE 7.6 km/h 9.7 km/h 98 % 0.0 mm
06:13 0.4 °C 0.1 °C 1018.2 hPa North 5.0 km/h 9.7 km/h 98 % 0.0 mm
06:18 0.4 °C 0.1 °C 1018.2 hPa NE 4.7 km/h 9.7 km/h 98 % 0.0 mm
06:23 0.4 °C 0.1 °C 1018.2 hPa NNE 5.8 km/h 9.7 km/h 98 % 0.0 mm
06:28 0.4 °C 0.1 °C 1018.2 hPa NE 7.9 km/h 8.7 km/h 98 % 0.0 mm
06:33 0.4 °C 0.1 °C 1018.2 hPa North 7.6 km/h 9.0 km/h 98 % 0.0 mm
06:38 0.4 °C 0.1 °C 1018.8 hPa NE 7.9 km/h 9.3 km/h 98 % 0.0 mm
06:43 0.4 °C 0.1 °C 1018.8 hPa NNE 6.4 km/h 10.1 km/h 98 % 0.0 mm
06:48 0.4 °C 0.1 °C 1018.8 hPa NE 9.0 km/h 10.1 km/h 98 % 0.0 mm
06:53 0.4 °C 0.1 °C 1018.2 hPa NE 5.5 km/h 9.0 km/h 98 % 0.0 mm
06:58 0.4 °C 0.1 °C 1018.2 hPa NNE 9.7 km/h 9.7 km/h 98 % 0.0 mm
07:03 0.4 °C 0.1 °C 1018.2 hPa NE 6.1 km/h 9.7 km/h 98 % 0.0 mm
07:08 0.4 °C 0.1 °C 1018.8 hPa ENE 6.4 km/h 10.1 km/h 98 % 0.0 mm
07:13 0.4 °C 0.1 °C 1018.8 hPa NE 7.6 km/h 10.1 km/h 98 % 0.0 mm
07:18 0.4 °C 0.1 °C 1018.8 hPa NNE 8.7 km/h 10.1 km/h 98 % 0.0 mm
07:23 0.4 °C 0.1 °C 1018.8 hPa NE 6.4 km/h 10.5 km/h 98 % 0.0 mm
07:28 0.4 °C 0.1 °C 1018.8 hPa NE 9.3 km/h 11.9 km/h 98 % 0.0 mm
07:33 0.4 °C 0.1 °C 1018.8 hPa NE 10.1 km/h 11.9 km/h 98 % 0.0 mm
07:38 0.4 °C 0.1 °C 1018.8 hPa NNE 6.9 km/h 11.6 km/h 98 % 0.0 mm
07:43 0.4 °C 0.1 °C 1018.8 hPa North 9.3 km/h 11.6 km/h 98 % 0.0 mm
07:48 0.4 °C 0.1 °C 1018.8 hPa NNE 10.1 km/h 12.2 km/h 98 % 0.0 mm
07:53 0.4 °C 0.1 °C 1018.8 hPa NNE 8.7 km/h 13.0 km/h 98 % 0.0 mm
07:58 0.4 °C 0.1 °C 1018.8 hPa NNE 7.9 km/h 13.0 km/h 98 % 0.0 mm
08:03 0.4 °C 0.1 °C 1018.8 hPa NE 9.3 km/h 11.9 km/h 98 % 0.0 mm
08:08 0.4 °C 0.1 °C 1018.8 hPa NNE 8.7 km/h 11.9 km/h 98 % 0.0 mm
08:13 0.4 °C 0.1 °C 1018.8 hPa NE 8.7 km/h 10.5 km/h 98 % 0.0 mm
08:18 0.4 °C 0.1 °C 1018.8 hPa NE 9.3 km/h 10.8 km/h 98 % 0.0 mm
08:23 0.4 °C 0.1 °C 1018.8 hPa North 5.0 km/h 10.8 km/h 98 % 0.0 mm
08:28 0.4 °C 0.1 °C 1018.8 hPa NE 7.6 km/h 12.2 km/h 98 % 0.0 mm
08:33 0.4 °C 0.1 °C 1018.8 hPa NNE 5.5 km/h 12.2 km/h 98 % 0.0 mm
08:38 0.4 °C 0.1 °C 1018.8 hPa NNE 5.5 km/h 9.7 km/h 98 % 0.0 mm
08:43 0.4 °C 0.1 °C 1018.8 hPa NNE 10.5 km/h 10.5 km/h 98 % 0.0 mm
08:48 0.4 °C 0.1 °C 1018.8 hPa North 6.1 km/h 10.5 km/h 98 % 0.0 mm
08:53 0.4 °C 0.1 °C 1018.8 hPa NNE 7.6 km/h 11.6 km/h 98 % 0.0 mm
08:58 0.4 °C 0.1 °C 1018.8 hPa NNE 9.7 km/h 11.6 km/h 98 % 0.0 mm
09:03 0.4 °C 0.1 °C 1018.8 hPa NE 9.0 km/h 11.1 km/h 98 % 0.0 mm
09:08 0.5 °C 0.2 °C 1018.2 hPa NE 10.1 km/h 10.5 km/h 98 % 0.0 mm
09:13 0.5 °C 0.2 °C 1018.2 hPa NNE 4.7 km/h 10.5 km/h 98 % 0.0 mm
09:18 0.5 °C 0.2 °C 1018.2 hPa NNE 9.0 km/h 10.1 km/h 98 % 0.0 mm
09:23 0.5 °C 0.2 °C 1018.2 hPa NNE 7.9 km/h 9.7 km/h 98 % 0.0 mm
09:28 0.6 °C 0.3 °C 1018.2 hPa NE 9.3 km/h 10.5 km/h 98 % 0.0 mm
09:33 0.6 °C 0.3 °C 1018.2 hPa NE 6.9 km/h 11.6 km/h 98 % 0.0 mm
09:38 0.6 °C 0.3 °C 1018.8 hPa NE 14.0 km/h 14.0 km/h 98 % 0.0 mm
09:43 0.6 °C 0.3 °C 1018.8 hPa NNE 14.0 km/h 14.0 km/h 98 % 0.0 mm
09:48 0.6 °C 0.3 °C 1018.8 hPa NE 10.5 km/h 14.0 km/h 98 % 0.0 mm
09:53 0.7 °C 0.4 °C 1018.2 hPa NNE 10.1 km/h 14.3 km/h 98 % 0.0 mm
09:58 0.7 °C 0.4 °C 1018.2 hPa NE 11.9 km/h 15.8 km/h 98 % 0.0 mm
10:03 0.7 °C 0.4 °C 1018.2 hPa NE 10.5 km/h 15.8 km/h 98 % 0.0 mm
10:08 0.7 °C 0.4 °C 1018.8 hPa NE 11.6 km/h 14.0 km/h 98 % 0.0 mm
10:13 0.7 °C 0.4 °C 1018.8 hPa NE 8.7 km/h 14.0 km/h 98 % 0.0 mm
10:18 0.7 °C 0.4 °C 1018.8 hPa NE 10.8 km/h 14.0 km/h 98 % 0.0 mm
10:23 0.8 °C 0.5 °C 1018.8 hPa NE 10.5 km/h 13.0 km/h 98 % 0.0 mm
10:28 0.8 °C 0.5 °C 1018.8 hPa NE 10.5 km/h 13.7 km/h 98 % 0.0 mm
10:33 0.8 °C 0.5 °C 1018.8 hPa ENE 9.3 km/h 13.7 km/h 98 % 0.0 mm
10:39 0.9 °C 0.6 °C 1018.2 hPa NE 9.7 km/h 13.7 km/h 98 % 0.0 mm
10:49 1.0 °C 0.7 °C 1018.2 hPa NE 7.9 km/h 13.0 km/h 98 % 0.0 mm
10:54 1.1 °C 0.8 °C 1018.8 hPa ENE 9.3 km/h 11.9 km/h 98 % 0.0 mm
10:59 1.0 °C 0.7 °C 1018.8 hPa NE 11.9 km/h 13.7 km/h 98 % 0.0 mm
11:04 1.1 °C 0.8 °C 1018.8 hPa NE 12.2 km/h 14.3 km/h 98 % 0.0 mm
11:09 1.1 °C 0.8 °C 1018.2 hPa NE 12.6 km/h 14.3 km/h 98 % 0.0 mm
11:14 1.2 °C 0.9 °C 1018.2 hPa NNE 14.3 km/h 14.3 km/h 98 % 0.0 mm
11:19 1.2 °C 0.9 °C 1018.2 hPa NNE 9.3 km/h 15.1 km/h 98 % 0.0 mm
11:24 1.3 °C 1.0 °C 1018.8 hPa NE 11.9 km/h 15.1 km/h 98 % 0.0 mm
11:29 1.3 °C 1.0 °C 1018.8 hPa NE 12.6 km/h 14.0 km/h 98 % 0.0 mm
11:34 1.4 °C 1.1 °C 1018.8 hPa NNE 9.7 km/h 14.0 km/h 98 % 0.0 mm
11:39 1.4 °C 1.1 °C 1018.2 hPa NE 13.0 km/h 14.3 km/h 98 % 0.0 mm
11:44 1.4 °C 0.9 °C 1018.2 hPa NNE 14.3 km/h 14.3 km/h 97 % 0.0 mm
11:49 1.6 °C 1.2 °C 1018.2 hPa NNW 13.0 km/h 14.3 km/h 97 % 0.0 mm
11:54 1.6 °C 1.2 °C 1018.2 hPa NNE 10.1 km/h 14.8 km/h 97 % 0.0 mm
11:59 1.6 °C 1.2 °C 1018.2 hPa NE 11.9 km/h 15.1 km/h 97 % 0.0 mm
12:04 1.6 °C 1.2 °C 1018.2 hPa NNE 10.1 km/h 15.1 km/h 97 % 0.0 mm
12:09 1.6 °C 1.2 °C 1018.8 hPa North 9.3 km/h 14.0 km/h 97 % 0.0 mm
12:14 1.6 °C 1.2 °C 1018.8 hPa NE 12.2 km/h 15.4 km/h 97 % 0.0 mm
12:19 1.7 °C 1.2 °C 1018.8 hPa NNE 7.9 km/h 15.4 km/h 97 % 0.0 mm
12:24 1.7 °C 1.2 °C 1018.8 hPa NE 11.9 km/h 14.0 km/h 97 % 0.0 mm
12:29 1.7 °C 1.2 °C 1018.8 hPa NNW 10.5 km/h 14.0 km/h 97 % 0.0 mm
12:34 1.7 °C 1.2 °C 1018.8 hPa East 13.0 km/h 14.8 km/h 97 % 0.0 mm
12:39 1.7 °C 1.2 °C 1018.8 hPa NE 15.8 km/h 16.3 km/h 97 % 0.0 mm
12:44 1.7 °C 1.1 °C 1018.8 hPa NE 12.2 km/h 19.8 km/h 96 % 0.0 mm
12:49 1.7 °C 1.1 °C 1018.8 hPa NNE 11.1 km/h 19.8 km/h 96 % 0.0 mm
12:54 1.7 °C 1.1 °C 1018.8 hPa NE 11.9 km/h 16.3 km/h 96 % 0.0 mm
12:59 1.7 °C 1.1 °C 1018.8 hPa NNE 10.5 km/h 16.3 km/h 96 % 0.0 mm
13:04 1.7 °C 1.1 °C 1018.8 hPa North 10.1 km/h 14.0 km/h 96 % 0.0 mm
13:09 1.7 °C 1.1 °C 1018.8 hPa NNE 12.2 km/h 14.0 km/h 96 % 0.0 mm
13:14 1.7 °C 1.1 °C 1018.8 hPa NE 9.7 km/h 14.0 km/h 96 % 0.0 mm
13:19 1.8 °C 1.2 °C 1018.8 hPa NNE 14.0 km/h 15.4 km/h 96 % 0.0 mm
13:24 1.8 °C 1.2 °C 1018.8 hPa NE 12.2 km/h 15.4 km/h 96 % 0.0 mm
13:29 1.9 °C 1.3 °C 1018.8 hPa NE 13.0 km/h 15.4 km/h 96 % 0.0 mm
13:34 1.8 °C 1.2 °C 1018.8 hPa NE 12.2 km/h 15.8 km/h 96 % 0.0 mm
13:39 1.9 °C 1.3 °C 1018.8 hPa NE 12.6 km/h 16.3 km/h 96 % 0.0 mm
13:44 1.9 °C 1.3 °C 1018.8 hPa NE 12.2 km/h 16.3 km/h 96 % 0.0 mm
13:49 1.9 °C 1.3 °C 1018.8 hPa NNE 12.6 km/h 17.2 km/h 96 % 0.0 mm
13:54 1.8 °C 1.2 °C 1018.8 hPa NNE 13.0 km/h 17.2 km/h 96 % 0.0 mm
13:59 1.7 °C 1.1 °C 1018.8 hPa NNE 12.2 km/h 15.8 km/h 96 % 0.0 mm
14:04 1.7 °C 1.1 °C 1018.8 hPa NE 13.0 km/h 17.2 km/h 96 % 0.0 mm
14:09 1.7 °C 1.1 °C 1018.8 hPa NNE 12.6 km/h 17.2 km/h 96 % 0.0 mm
14:14 1.7 °C 1.1 °C 1018.8 hPa NE 8.7 km/h 16.3 km/h 96 % 0.0 mm
14:19 1.7 °C 1.1 °C 1018.8 hPa NNE 11.9 km/h 16.3 km/h 96 % 0.0 mm
14:24 1.6 °C 1.0 °C 1019.9 hPa NE 11.9 km/h 15.8 km/h 96 % 0.0 mm
14:29 1.6 °C 1.0 °C 1019.9 hPa NNE 10.1 km/h 14.0 km/h 96 % 0.0 mm
14:34 1.6 °C 1.0 °C 1019.9 hPa North 11.9 km/h 14.0 km/h 96 % 0.0 mm
14:39 1.6 °C 1.0 °C 1018.8 hPa NNE 12.2 km/h 14.0 km/h 96 % 0.0 mm
14:44 1.6 °C 1.0 °C 1018.8 hPa NE 13.7 km/h 14.0 km/h 96 % 0.0 mm
14:50 1.6 °C 1.0 °C 1018.8 hPa NNE 9.7 km/h 14.0 km/h 96 % 0.0 mm
14:55 1.7 °C 1.1 °C 1018.8 hPa NE 10.5 km/h 13.0 km/h 96 % 0.0 mm
15:00 1.7 °C 1.1 °C 1018.8 hPa NE 6.9 km/h 11.6 km/h 96 % 0.0 mm
15:05 1.7 °C 1.1 °C 1018.8 hPa NNE 12.2 km/h 13.7 km/h 96 % 0.0 mm
15:10 1.7 °C 1.1 °C 1018.8 hPa NE 6.9 km/h 13.7 km/h 96 % 0.0 mm
15:15 1.7 °C 1.1 °C 1018.8 hPa NNE 12.2 km/h 13.7 km/h 96 % 0.0 mm
15:20 1.7 °C 1.1 °C 1018.8 hPa NE 9.0 km/h 13.7 km/h 96 % 0.0 mm
15:25 1.7 °C 1.1 °C 1018.8 hPa NE 10.5 km/h 13.7 km/h 96 % 0.0 mm
15:30 1.7 °C 1.1 °C 1018.8 hPa NE 9.0 km/h 12.6 km/h 96 % 0.0 mm
15:35 1.6 °C 1.0 °C 1018.8 hPa NE 10.1 km/h 13.0 km/h 96 % 0.0 mm
15:40 1.6 °C 1.0 °C 1018.8 hPa North 11.6 km/h 13.0 km/h 96 % 0.0 mm
15:45 1.6 °C 1.0 °C 1018.8 hPa NNE 9.7 km/h 13.7 km/h 96 % 0.0 mm
15:50 1.6 °C 1.0 °C 1018.8 hPa NE 6.1 km/h 14.0 km/h 96 % 0.0 mm
15:55 1.6 °C 1.0 °C 1018.8 hPa ENE 7.6 km/h 14.0 km/h 96 % 0.0 mm
16:00 1.6 °C 1.0 °C 1018.8 hPa North 7.9 km/h 13.7 km/h 96 % 0.0 mm
16:05 1.6 °C 1.2 °C 1018.8 hPa NNE 11.6 km/h 12.2 km/h 97 % 0.0 mm
16:10 1.4 °C 1.1 °C 1018.2 hPa NNE 5.0 km/h 13.7 km/h 97 % 0.0 mm
16:15 1.4 °C 1.1 °C 1018.2 hPa NE 11.9 km/h 13.7 km/h 97 % 0.0 mm
16:20 1.4 °C 1.1 °C 1018.2 hPa NE 9.0 km/h 13.7 km/h 97 % 0.0 mm
16:25 1.4 °C 1.1 °C 1018.2 hPa NE 10.8 km/h 14.3 km/h 97 % 0.0 mm
16:30 1.4 °C 1.1 °C 1018.2 hPa NNE 10.5 km/h 14.3 km/h 97 % 0.0 mm
16:35 1.4 °C 1.1 °C 1018.2 hPa NE 8.7 km/h 14.0 km/h 97 % 0.0 mm
16:40 1.4 °C 0.9 °C 1018.2 hPa North 9.3 km/h 13.7 km/h 97 % 0.0 mm
16:45 1.4 °C 0.9 °C 1018.2 hPa NNE 12.2 km/h 15.1 km/h 97 % 0.0 mm
16:50 1.4 °C 0.9 °C 1018.2 hPa ENE 12.6 km/h 15.1 km/h 97 % 0.0 mm
16:55 1.4 °C 0.9 °C 1018.8 hPa NE 11.6 km/h 13.7 km/h 97 % 0.0 mm
17:00 1.4 °C 0.9 °C 1018.8 hPa NE 13.0 km/h 13.0 km/h 97 % 0.0 mm
17:05 1.4 °C 0.9 °C 1018.8 hPa NE 12.6 km/h 13.0 km/h 97 % 0.0 mm
17:10 1.4 °C 0.9 °C 1018.8 hPa NE 9.0 km/h 13.0 km/h 97 % 0.0 mm
17:15 1.4 °C 0.9 °C 1018.8 hPa NE 6.9 km/h 13.0 km/h 97 % 0.0 mm
17:20 1.4 °C 0.9 °C 1018.8 hPa NE 9.3 km/h 13.0 km/h 97 % 0.0 mm
17:25 1.4 °C 0.9 °C 1018.8 hPa NE 9.7 km/h 13.0 km/h 97 % 0.0 mm
17:30 1.4 °C 0.9 °C 1018.8 hPa NNE 9.0 km/h 13.0 km/h 97 % 0.0 mm
17:35 1.4 °C 0.9 °C 1018.8 hPa NNE 6.4 km/h 12.2 km/h 97 % 0.0 mm
17:40 1.4 °C 0.9 °C 1018.8 hPa NNE 9.7 km/h 12.2 km/h 97 % 0.0 mm
17:45 1.4 °C 0.9 °C 1018.8 hPa North 6.4 km/h 11.9 km/h 97 % 0.0 mm
17:50 1.4 °C 0.9 °C 1018.8 hPa NNE 10.5 km/h 11.9 km/h 97 % 0.0 mm
17:55 1.3 °C 0.8 °C 1018.8 hPa NE 9.7 km/h 11.9 km/h 97 % 0.0 mm
18:00 1.3 °C 0.8 °C 1018.8 hPa NE 9.3 km/h 11.9 km/h 97 % 0.0 mm
18:05 1.3 °C 0.8 °C 1018.8 hPa NE 9.3 km/h 11.9 km/h 97 % 0.0 mm
18:10 1.3 °C 0.8 °C 1018.8 hPa NE 6.9 km/h 11.6 km/h 97 % 0.0 mm
18:15 1.3 °C 0.8 °C 1018.8 hPa NE 6.4 km/h 9.0 km/h 97 % 0.0 mm
18:20 1.3 °C 0.8 °C 1018.8 hPa NNE 6.4 km/h 9.3 km/h 97 % 0.0 mm
18:25 1.3 °C 0.8 °C 1018.8 hPa NNE 6.1 km/h 10.5 km/h 97 % 0.0 mm
18:31 1.3 °C 0.8 °C 1018.8 hPa NNE 5.8 km/h 10.5 km/h 97 % 0.0 mm
18:36 1.3 °C 0.8 °C 1018.8 hPa NE 9.0 km/h 12.2 km/h 97 % 0.0 mm
18:41 1.3 °C 0.8 °C 1018.8 hPa NNE 8.7 km/h 12.2 km/h 97 % 0.0 mm
18:46 1.3 °C 0.8 °C 1018.8 hPa NE 8.7 km/h 11.6 km/h 97 % 0.0 mm
18:51 1.3 °C 0.8 °C 1018.8 hPa NE 5.8 km/h 11.6 km/h 97 % 0.0 mm
18:56 1.3 °C 0.8 °C 1018.8 hPa NE 10.1 km/h 10.5 km/h 97 % 0.0 mm
19:01 1.3 °C 0.8 °C 1018.8 hPa NNE 8.7 km/h 11.6 km/h 97 % 0.0 mm
19:06 1.4 °C 0.9 °C 1018.8 hPa NNE 9.7 km/h 12.6 km/h 97 % 0.0 mm
19:11 1.3 °C 0.8 °C 1018.8 hPa NE 10.5 km/h 12.6 km/h 97 % 0.0 mm
19:16 1.4 °C 0.9 °C 1018.8 hPa NE 11.9 km/h 12.6 km/h 97 % 0.0 mm
19:21 1.3 °C 1.0 °C 1018.8 hPa NNE 9.3 km/h 11.9 km/h 98 % 0.0 mm
19:26 1.3 °C 0.8 °C 1018.8 hPa NNE 9.3 km/h 11.9 km/h 97 % 0.0 mm
19:31 1.3 °C 1.0 °C 1018.8 hPa NE 5.8 km/h 10.5 km/h 98 % 0.0 mm
19:36 1.3 °C 1.0 °C 1018.8 hPa NNE 11.9 km/h 12.2 km/h 98 % 0.0 mm
19:41 1.3 °C 0.8 °C 1018.8 hPa NNE 8.7 km/h 12.2 km/h 97 % 0.0 mm
19:46 1.3 °C 1.0 °C 1018.8 hPa NE 8.7 km/h 12.2 km/h 98 % 0.0 mm
19:51 1.3 °C 1.0 °C 1018.8 hPa NE 7.9 km/h 12.2 km/h 98 % 0.0 mm
19:56 1.3 °C 1.0 °C 1018.8 hPa NNE 5.0 km/h 10.5 km/h 98 % 0.0 mm
20:01 1.3 °C 1.0 °C 1018.8 hPa NNE 7.9 km/h 8.7 km/h 98 % 0.0 mm
20:06 1.3 °C 1.0 °C 1018.8 hPa NNW 9.3 km/h 10.5 km/h 98 % 0.0 mm
20:11 1.3 °C 1.0 °C 1018.8 hPa NE 9.3 km/h 10.5 km/h 98 % 0.0 mm
20:16 1.3 °C 1.0 °C 1018.8 hPa NNE 9.0 km/h 10.5 km/h 98 % 0.0 mm
20:21 1.3 °C 1.0 °C 1018.8 hPa North 9.3 km/h 10.5 km/h 98 % 0.0 mm
20:26 1.2 °C 0.9 °C 1018.8 hPa North 6.1 km/h 10.1 km/h 98 % 0.0 mm
20:31 1.2 °C 0.9 °C 1018.8 hPa NE 7.6 km/h 11.9 km/h 98 % 0.0 mm
20:36 1.2 °C 0.9 °C 1018.8 hPa North 8.7 km/h 11.9 km/h 98 % 0.0 mm
20:41 1.2 °C 0.9 °C 1019.9 hPa NE 7.9 km/h 10.5 km/h 98 % 0.0 mm
20:46 1.2 °C 0.9 °C 1019.9 hPa NE 10.1 km/h 12.2 km/h 98 % 0.0 mm
20:51 1.2 °C 0.9 °C 1019.9 hPa NE 8.7 km/h 12.2 km/h 98 % 0.0 mm
20:56 1.2 °C 0.9 °C 1018.8 hPa ENE 9.0 km/h 10.5 km/h 98 % 0.0 mm
21:01 1.1 °C 0.7 °C 1018.8 hPa ENE 10.5 km/h 13.7 km/h 97 % 0.0 mm
21:06 1.1 °C 0.7 °C 1018.8 hPa East 9.0 km/h 13.7 km/h 97 % 0.0 mm
21:11 1.1 °C 0.7 °C 1018.8 hPa ENE 9.0 km/h 12.2 km/h 97 % 0.0 mm
21:16 1.1 °C 0.7 °C 1018.8 hPa ENE 5.0 km/h 11.9 km/h 97 % 0.0 mm
21:21 1.1 °C 0.7 °C 1018.8 hPa ENE 10.1 km/h 11.9 km/h 97 % 0.0 mm
21:26 1.1 °C 0.7 °C 1018.8 hPa NE 11.9 km/h 14.3 km/h 97 % 0.0 mm
21:31 1.0 °C 0.4 °C 1018.8 hPa NE 11.6 km/h 14.3 km/h 96 % 0.0 mm
21:36 1.0 °C 0.4 °C 1018.8 hPa NE 6.4 km/h 14.3 km/h 96 % 0.0 mm
21:41 1.0 °C 0.4 °C 1018.8 hPa NE 4.7 km/h 14.0 km/h 96 % 0.0 mm
21:46 1.0 °C 0.4 °C 1018.8 hPa East 9.3 km/h 10.5 km/h 96 % 0.0 mm
21:51 1.0 °C 0.4 °C 1018.8 hPa ENE 5.0 km/h 12.2 km/h 96 % 0.0 mm
21:56 1.0 °C 0.4 °C 1018.2 hPa NNE 7.9 km/h 12.2 km/h 96 % 0.0 mm
22:01 1.0 °C 0.4 °C 1018.2 hPa ENE 7.9 km/h 13.0 km/h 96 % 0.0 mm
22:06 1.0 °C 0.4 °C 1018.2 hPa North 9.0 km/h 13.0 km/h 96 % 0.0 mm
22:11 1.0 °C 0.4 °C 1018.2 hPa North 3.5 km/h 9.3 km/h 96 % 0.0 mm
22:17 1.0 °C 0.4 °C 1018.2 hPa ENE 4.7 km/h 6.9 km/h 96 % 0.0 mm
22:22 1.0 °C 0.4 °C 1018.2 hPa ENE 3.5 km/h 6.9 km/h 96 % 0.0 mm
22:27 1.0 °C 0.4 °C 1018.8 hPa Calm   6.1 km/h 96 % 0.0 mm
22:32 1.1 °C 0.5 °C 1018.8 hPa Calm   4.3 km/h 96 % 0.0 mm
22:36 1.1 °C 0.5 °C 1018.8 hPa Calm     96 % 0.0 mm
22:41 1.1 °C 0.5 °C 1018.2 hPa Calm     96 % 0.0 mm
22:46 1.1 °C 0.5 °C 1018.2 hPa NNW 2.1 km/h 2.1 km/h 96 % 0.0 mm
22:52 1.1 °C 0.5 °C 1018.2 hPa Calm   2.1 km/h 96 % 0.0 mm
22:57 1.1 °C 0.5 °C 1019.9 hPa Calm   2.1 km/h 96 % 0.0 mm
23:02 1.1 °C 0.5 °C 1019.9 hPa North 4.0 km/h 4.0 km/h 96 % 0.0 mm
23:07 1.1 °C 0.5 °C 1019.9 hPa Calm   4.0 km/h 96 % 0.0 mm
23:12 1.1 °C 0.5 °C 1018.8 hPa Calm   4.0 km/h 96 % 0.0 mm
23:17 1.1 °C 0.5 °C 1018.8 hPa Calm     96 % 0.0 mm
23:22 1.1 °C 0.5 °C 1018.8 hPa North 1.4 km/h 4.3 km/h 96 % 0.0 mm
23:27 1.1 °C 0.5 °C 1018.8 hPa Calm   4.3 km/h 96 % 0.0 mm
23:32 1.1 °C 0.5 °C 1018.8 hPa Calm   3.2 km/h 96 % 0.0 mm
23:37 1.1 °C 0.5 °C 1018.8 hPa Calm   1.4 km/h 96 % 0.0 mm
23:42 1.1 °C 0.5 °C 1018.8 hPa Calm   3.2 km/h 96 % 0.0 mm
23:47 1.1 °C 0.5 °C 1018.8 hPa Calm   3.2 km/h 96 % 0.0 mm
23:52 1.1 °C 0.5 °C 1018.2 hPa NNE 3.5 km/h 4.3 km/h 96 % 0.0 mm
23:57 1.1 °C 0.5 °C 1018.2 hPa Calm   5.0 km/h 96 % 0.0 mm
Le Gheer Warneton
Courtoisie de Weather Underground - 2.25 mb

Mise a jour : 17-12-17 03:30:12
Généré par Cumulus 1.9.4 (1099)